Starlink 30146

operational
NORAD ID: 57442 Int'l Des: 2023-105 Owner: SPXS Country: US Constellation: starlink
LEOCIRCULAR

Starlink 30146について

説明を読み込み中...

リアルタイム位置

3D地球を読み込み中...

次回通過

高度履歴

Altitude vs Time

uPlot chart will show altitude changes over time

軌道要素

1 57442U 23105N 25303.88215903 .00000287 00000-0 36328-4 0 9995
2 57442 43.0010 247.0282 0000833 261.9249 98.1499 15.02534413126090
Epoch: Oct 30, 2025 • Age: 14 hours

現在のステータス

高度 562.7 km
速度 7.58 km/s
衛星直下点 -18.27°S, 118.25°W
打ち上げ日 Jul 24, 2023
運用期間 2.2 years
タイプ internet

技術仕様

分類 Payload
質量 730.00 kg
乾燥質量 700.00 kg
総質量 730.00 kg
長さ 0.30 m
直径 4.10 m
スパン 29.00 m
形状 Box + pan
製造者 SPXS
バスタイプ Starlink V2M
フェーズステータス In Orbit
所有者/国 SPXS/US

大規模コンステレーション

Loading constellations...